Station GTLM4 - Grand Traverse Light, MI Image indicating link to RSS feed of recent meteorological observations for station GTLM4


Conditions at GTLM4 as of
(7:40 am EDT)
1140 GMT on 09/06/2026:
     

Click on the graph icon in the table below to see a time series plot of the last five days of that observation.

5-day plot - Wind Direction Wind Direction (WDIR):WSW ( 240 deg true )
5-day plot - Wind Speed Wind Speed (WSPD): 1.0 kts
5-day plot - Wind Gust Wind Gust (GST): 1.9 kts
5-day plot - Atmospheric Pressure Atmospheric Pressure (PRES):30.15 in
5-day plot - Air Temperature Air Temperature (ATMP): 59.4 °F
5-day plot - Wind Speed at 10 Meters Wind Speed at 10 meters (WSPD10M): 1.9 kts
5-day plot - Wind Speed at 20 Meters Wind Speed at 20 meters (WSPD20M): 1.9 kts
5-day plot -  Wind Speed, Wind Gust and Atmospheric Pressure Combined plot of Wind Speed, Gust, and Air Pressure
Previous observations
TIME
(EDT)
5-day plot - Wind Direction
WDIR
 
5-day plot - Wind Speed
WSPD
kts
5-day plot - Wind Gust
GST
kts
5-day plot - Wave Height
WVHT
ft
5-day plot - Dominant Wave Period
DPD
sec
5-day plot - Average Wave Period
APD
sec
5-day plot - Mean Wave Direction
MWD
 
5-day plot - Atmospheric Pressure
PRES
in
5-day plot - Pressure Tendency
PTDY
in
5-day plot - Air Temperature
ATMP
°F
5-day plot - Water Temperature
WTMP
°F
5-day plot - Dew Point
DEWP
°F
5-day plot - Salinity
SAL
psu
5-day plot - Visibility
VIS
nmi
5-day plot - Tide (above MLLW)
TIDE
ft
2026-09-06 07:30 amWSW 1.9 1.9----30.15- 59.2-----
2026-09-06 07:20 am SW 1.0 1.9----30.15- 59.0-----
2026-09-06 07:10 am SW 1.9 2.9----30.15- 58.6-----
2026-09-06 07:00 am SW 1.9 2.9----30.15+0.03 58.3-----
2026-09-06 06:50 amWSW 1.9 1.9----30.15- 58.3-----
2026-09-06 06:40 am SW 1.9 1.9----30.15- 58.1-----
2026-09-06 06:30 am W 1.9 2.9----30.15- 57.9-----
2026-09-06 06:20 am- 0.0 1.9----30.15- 57.9-----
2026-09-06 06:10 am- 0.0 4.1----30.15- 58.3-----
2026-09-06 06:00 am SW 2.9 4.1----30.15+0.04 58.3-----
2026-09-06 05:50 am SW 1.0 1.9----30.14- 58.5-----
2026-09-06 05:40 am- 0.0 0.0----30.14- 58.6-----
2026-09-06 05:30 am- 0.0 0.0----30.13- 58.6-----
2026-09-06 05:20 am- 0.0 1.0----30.13- 58.8-----
2026-09-06 05:10 amENE 1.0 1.9----30.13- 58.8-----
2026-09-06 05:00 am E 1.0 1.0----30.13+0.02 58.6-----
2026-09-06 04:50 am- 0.0 1.0----30.13- 58.5-----
2026-09-06 04:40 am- 0.0 1.0----30.13- 58.8-----
2026-09-06 04:30 am- 0.0 1.9----30.12- 58.8-----
2026-09-06 04:20 am SE 1.9 1.9----30.12- 58.8-----
2026-09-06 04:10 amESE 1.9 2.9----30.12- 58.8-----
2026-09-06 04:00 am E 1.9 2.9----30.12+0.02 59.0-----
2026-09-06 03:50 am E 1.9 2.9----30.12- 58.8-----
2026-09-06 03:40 am SE 1.9 4.1----30.12- 58.8-----
2026-09-06 03:30 am SE 2.9 4.1----30.11- 59.0-----
2026-09-06 03:20 am SE 2.9 4.1----30.11- 59.0-----
2026-09-06 03:10 amESE 2.9 4.1----30.11- 58.6-----
2026-09-06 03:00 am SE 1.9 4.1----30.11+0.02 58.8-----
2026-09-06 02:50 amSSE 4.1 4.1----30.11- 58.8-----
2026-09-06 02:40 am SE 4.1 5.1----30.11- 59.0-----
2026-09-06 02:30 am E 2.9 4.1----30.11- 59.0-----
2026-09-06 02:20 amENE 1.9 2.9----30.12- 59.0-----
2026-09-06 02:10 am SE 2.9 4.1----30.12- 59.2-----
2026-09-06 02:00 am SE 2.9 4.1----30.11+0.02 59.0-----
2026-09-06 01:50 amSSE 2.9 4.1----30.11- 59.0-----
2026-09-06 01:40 amSSE 2.9 4.1----30.10- 59.0-----
2026-09-06 01:30 amSSE 2.9 4.1----30.10- 59.2-----
2026-09-06 01:20 amSSE 2.9 5.1----30.10- 59.2-----
2026-09-06 01:10 am SE 2.9 4.1----30.10- 59.2-----
2026-09-06 01:00 amSSE 2.9 4.1----30.10+0.03 59.2-----
2026-09-06 12:50 am SE 2.9 4.1----30.10- 59.2-----
2026-09-06 12:40 am SE 2.9 4.1----30.10- 59.2-----
2026-09-06 12:30 am SE 2.9 5.1----30.10- 59.4-----
2026-09-06 12:20 amSSE 4.1 6.0----30.10- 59.4-----
2026-09-06 12:10 am SE 2.9 5.1----30.10- 59.7-----
2026-09-06 12:00 am SE 2.9 6.0----30.09+0.02 59.9-----
2026-09-05 11:50 pmSSE 2.9 4.1----30.09- 60.1-----
2026-09-05 11:40 pm SE 2.9 4.1----30.09- 60.3-----
2026-09-05 11:30 pm SE 2.9 4.1----30.09- 60.6-----
2026-09-05 11:20 pm SE 2.9 4.1----30.09- 61.0-----
2026-09-05 11:10 pm SE 1.9 4.1----30.09- 61.3-----
2026-09-05 11:00 pm SE 1.9 4.1----30.09+0.03 62.1-----
2026-09-05 10:50 pm SE 1.9 5.1----30.09- 62.8-----
2026-09-05 10:40 pmESE 1.9 5.1----30.09- 63.7-----
2026-09-05 10:30 pmESE 2.9 6.0----30.09- 65.1-----
2026-09-05 10:20 pmESE 2.9 7.0----30.08- 66.7-----
2026-09-05 10:10 pm E 2.9 6.0----30.08- 66.0-----
2026-09-05 10:00 pm E 5.1 7.0----30.07+0.01 67.1-----
2026-09-05 09:50 pm E 4.1 8.0----30.08- 68.0-----
2026-09-05 09:40 pm E 7.0 9.9----30.08- 68.5-----
2026-09-05 09:30 pm E 7.0 12.0----30.07- 69.1-----
2026-09-05 09:20 pmENE 9.9 12.0----30.07- 69.1-----
2026-09-05 09:10 pmENE 11.1 12.0----30.07- 69.3-----
2026-09-05 09:00 pm E 8.9 11.1----30.07+0.02 69.1-----
2026-09-05 08:50 pm E 8.9 11.1----30.07- 68.5-----
2026-09-05 08:40 pmENE 8.9 11.1----30.06- 69.1-----
2026-09-05 08:30 pmENE 9.9 11.1----30.06- 69.3-----
2026-09-05 08:20 pmENE 8.9 11.1----30.06- 69.6-----
2026-09-05 08:10 pm NE 8.9 9.9----30.07- 70.0-----
2026-09-05 08:00 pm NE 8.9 11.1----30.06+0.01 70.3-----
2026-09-05 07:50 pm NE 9.9 11.1----30.06- 70.5-----
2026-09-05 07:40 pm NE 11.1 12.0----30.07- 70.9-----
2026-09-05 07:30 pm NE 8.0 9.9----30.07- 71.1-----
2026-09-05 07:20 pm NE 8.9 11.1----30.06- 71.2-----
2026-09-05 07:10 pm NE 9.9 11.1----30.06- 71.4-----
2026-09-05 07:00 pmNNE 9.9 11.1----30.06+0.01 71.8-----
2026-09-05 06:50 pm NE 9.9 11.1----30.06- 71.8-----
2026-09-05 06:40 pmNNE 8.9 12.0----30.06- 72.1-----
2026-09-05 06:30 pmNNE 9.9 11.1----30.05- 72.3-----
2026-09-05 06:20 pmNNE 9.9 12.0----30.05- 72.7-----
2026-09-05 06:10 pmNNE 9.9 11.1----30.05- 73.4-----
2026-09-05 06:00 pmNNE 9.9 12.0----30.05-0.02 73.8-----
2026-09-05 05:50 pmNNE 9.9 11.1----30.05- 73.9-----
2026-09-05 05:40 pmNNE 9.9 12.0----30.05- 73.9-----
2026-09-05 05:30 pmNNE 9.9 12.0----30.05- 73.8-----
2026-09-05 05:20 pmNNE 9.9 12.0----30.04- 73.9-----
2026-09-05 05:10 pm NE 9.9 12.0----30.04- 73.8-----
2026-09-05 05:00 pmNNE 9.9 12.0----30.05-0.02 73.8-----
2026-09-05 04:50 pmNNE 9.9 13.0----30.05- 73.6-----
2026-09-05 04:40 pmNNE 12.0 14.0----30.06- 73.8-----
2026-09-05 04:30 pmNNE 12.0 13.0----30.06- 73.6-----
2026-09-05 04:20 pmNNE 12.0 14.0----30.06- 73.2-----
2026-09-05 04:10 pm NE 13.0 15.0----30.05- 73.0-----
2026-09-05 04:00 pm NE 13.0 15.0----30.05-0.03 72.9-----
2026-09-05 03:50 pm NE 13.0 15.0----30.05- 72.9-----
2026-09-05 03:40 pm NE 13.0 15.0----30.05- 72.5-----
2026-09-05 03:30 pmNNE 13.0 15.0----30.06- 72.3-----
2026-09-05 03:20 pmNNE 14.0 17.1----30.06- 72.1-----
2026-09-05 03:10 pmNNE 15.0 17.1----30.06- 72.1-----
2026-09-05 03:00 pmNNE 15.9 17.1----30.07-0.02 72.1-----
2026-09-05 02:50 pmNNE 15.9 17.1----30.07- 72.0-----
2026-09-05 02:40 pmNNE 15.0 17.1----30.07- 72.0-----
2026-09-05 02:30 pm NE 14.0 15.0----30.06- 72.1-----
2026-09-05 02:20 pmNNE 14.0 15.9----30.07- 72.0-----
2026-09-05 02:10 pm NE 14.0 15.9----30.06- 72.0-----
2026-09-05 02:00 pmNNE 13.0 14.0----30.07+0.00 72.3-----
2026-09-05 01:50 pmNNE 13.0 14.0----30.07- 72.5-----
2026-09-05 01:40 pm NE 13.0 14.0----30.07- 72.3-----
2026-09-05 01:30 pm NE 12.0 13.0----30.07- 72.9-----
2026-09-05 01:20 pm NE 12.0 13.0----30.07- 72.7-----
2026-09-05 01:10 pmNNE 11.1 12.0----30.07- 73.0-----
2026-09-05 01:00 pmNNE 11.1 12.0----30.08+0.03 72.7-----
2026-09-05 12:50 pmNNE 9.9 12.0----30.08- 72.7-----
2026-09-05 12:40 pmNNE 9.9 11.1----30.08- 72.7-----
2026-09-05 12:30 pmNNE 9.9 11.1----30.08- 72.5-----
2026-09-05 12:20 pmNNE 8.9 9.9----30.08- 72.3-----
2026-09-05 12:10 pmNNE 8.9 8.9----30.08- 73.0-----
2026-09-05 12:00 pm NE 6.0 7.0----30.09+0.05 73.9-----
2026-09-05 11:50 amENE 5.1 6.0----30.08- 74.8-----
2026-09-05 11:40 amENE 5.1 6.0----30.09- 73.9-----
2026-09-05 11:30 am E 5.1 7.0----30.08- 72.5-----
2026-09-05 11:20 am E 6.0 8.0----30.07- 72.7-----
2026-09-05 11:10 am E 8.0 8.9----30.07- 72.3-----
2026-09-05 11:00 am E 5.1 11.1----30.07+0.03 71.4-----
2026-09-05 10:50 am E 8.0 9.9----30.07- 71.4-----
2026-09-05 10:40 am E 8.0 8.9----30.06- 71.1-----
2026-09-05 10:30 am E 8.0 9.9----30.06- 70.7-----
2026-09-05 10:20 am E 8.0 11.1----30.06- 70.2-----
2026-09-05 10:10 am E 8.9 11.1----30.05- 70.0-----
2026-09-05 10:00 am E 8.9 11.1----30.05+0.02 69.4-----
2026-09-05 09:50 am E 8.0 9.9----30.05- 69.1-----
2026-09-05 09:40 am E 7.0 9.9----30.05- 68.9-----
2026-09-05 09:30 am E 7.0 12.0----30.05- 69.3-----
2026-09-05 09:20 am E 7.0 12.0----30.05- 69.3-----
2026-09-05 09:10 am E 9.9 13.0----30.04- 69.3-----
2026-09-05 09:00 am E 9.9 12.0----30.04+0.02 69.1-----
2026-09-05 08:50 am E 6.0 12.0----30.04- 68.2-----
2026-09-05 08:40 am E 7.0 12.0----30.04- 68.0-----
2026-09-05 08:30 am E 8.0 12.0----30.04- 67.1-----
2026-09-05 08:20 am E 8.0 12.0----30.03- 67.1-----
2026-09-05 08:10 am E 8.0 14.0----30.04- 66.7-----
2026-09-05 08:00 am E 11.1 14.0----30.04+0.03 66.7-----
2026-09-05 07:50 am E 8.0 11.1----30.04- 65.5-----